Location: Brzezie
(50.1252°N, 19.8246°E)
Time: 20:28:38
(UTC+00:00)

Daily predictions for brighter satellites

Satellite Brightness Start Highest point End
(mag) Time Altitude Azimuth Time Altitude Azimuth Time Altitude Azimuth
ATLAS 2AS CENTAUR R/B 3.0 18:48:33 10° NW 18:56:04 70° NE 19:02:58 10° SE
COSMOS 2406 3.7 18:51:54 10° NW 18:57:29 60° WSW 19:03:04 10° S
Cosmos 2278 Rocket 2.2 18:53:27 10° SSW 18:59:06 75° ESE 19:04:46 10° NNE
Cosmos 1515 Rocket 3.7 18:56:18 10° S 19:00:34 55° E 19:04:52 10° NNE
Cosmos 1633 Rocket 3.9 18:56:27 10° NNW 19:00:46 53° W 19:05:04 10° S
Cosmos 1271 Rocket 3.5 18:57:57 10° SSE 19:01:37 36° E 19:05:18 10° NNE
USA 215 3.9 18:55:28 10° ENE 19:01:54 63° NNW 19:08:20 10° W
Cosmos 158 Rocket 3.9 18:59:54 10° NNW 19:04:50 81° ENE 19:09:48 10° SSE
Cosmos 1536 4.1 19:01:24 10° N 19:04:53 27° ENE 19:08:20 10° SE
Cosmos 2315 Rocket 4.2 19:01:04 10° S 19:07:28 83° W 19:13:54 10° N
Cosmos 2228 Rocket 4.0 19:04:28 10° SSE 19:08:23 31° E 19:12:20 10° NNE
Cosmos 1328 Rocket 3.9 19:06:02 10° SSW 19:10:26 71° WNW 19:14:51 10° N
Cosmos 1666 2.6 19:09:15 10° N 19:12:59 76° ENE 19:16:42 10° SSE
Resurs 01 Rocket 1.7 19:08:53 10° SSE 19:13:20 86° WSW 19:17:48 10° NNW
CRYOSAT 2 4.4 19:09:25 10° SSE 19:14:18 78° E 19:19:12 10° N
Cosmos 923 Rocket 4.1 19:09:02 10° NNW 19:14:19 72° ENE 19:19:37 10° SSE
EP 1 4.3 19:11:26 10° SSW 19:14:30 66° SE 19:17:08 10° NE
Cosmos 1470 Rocket 4.2 19:14:45 10° NNW 19:19:11 59° W 19:23:35 10° S
SL-24 R/B - RUBIN 2 4.0 19:14:55 10° NW 19:20:31 82° NE 19:25:17 11° SE
Terra 3.2 19:16:57 10° ESE 19:20:48 25° ENE 19:24:40 10° N
Cosmos 1818 3.9 19:16:15 10° NW 19:21:43 61° NE 19:27:02 11° SE
Meteor 2-6 Rocket 4.2 19:17:09 10° S 19:22:37 79° E 19:28:16 10° NNE
Tianhe-1 2.9 19:21:20 10° SSW 19:23:18 16° S 19:24:46 12° SE
Cosmos 1833 Rocket 3.9 19:18:19 10° NW 19:23:32 39° WSW 19:28:42 10° S
Cosmos 1812 2.9 19:21:17 10° SSW 19:25:08 75° W 19:29:01 10° N
CARTOSAT-1 4.1 19:21:53 10° SE 19:25:54 43° ENE 19:30:01 10° N
Cosmos 2084 Rocket 3.5 19:23:49 10° NW 19:28:05 80° NE 19:32:06 12° SE
Cosmos 1933 Rocket 3.9 19:28:31 10° NNW 19:32:49 64° W 19:37:08 10° S
IGS 5A 3.9 19:29:12 10° S 19:33:18 61° W 19:37:26 10° NNW
RESURS DK-1 4.3 19:32:56 10° N 19:36:04 20° NE 19:39:12 10° E
SJ 16-02 1.8 19:31:48 10° SSW 19:36:13 68° WNW 19:40:40 10° NNE
CZ-2C R/B 3.7 19:37:42 10° NNE 19:42:15 76° ESE 19:46:51 10° S
Meteor 1-27 Rocket 4.0 19:36:44 10° S 19:42:29 59° E 19:48:19 10° NNE
Cosmos 1743 3.4 19:43:42 10° N 19:47:23 39° ENE 19:50:00 17° SE
Cosmos 1733 Rocket 4.1 19:44:58 10° N 19:48:51 31° ENE 19:51:42 16° SE
Cosmos 2112 Rocket 4.1 19:47:20 10° NNW 19:52:44 87° WSW 19:57:14 15° SSE
ERS-1 Rocket 3.1 19:49:16 15° SSE 19:53:25 63° ENE 19:58:25 10° N
ERBS 2.3 19:50:54 10° WNW 19:54:11 66° SW 19:56:16 20° SE
SPOT 5 3.2 19:51:32 15° SSE 19:55:52 66° ENE 20:01:12 10° N
Cosmos 1238 Rocket 4.3 19:53:23 10° N 19:58:53 41° ENE 20:02:20 17° SE
ARIANE 5 R/B 2.6 19:55:47 14° SSE 19:59:27 85° W 20:03:49 10° NNW
USA 245 3.1 20:00:07 17° SSW 20:01:37 41° W 20:04:02 10° NNW
SPOT 1/Viking Rocket 4.0 19:56:36 10° S 20:01:45 61° WSW 20:06:53 10° NNW
Spot 2 Rocket 3.6 19:57:54 13° S 20:02:26 78° WSW 20:07:31 10° NNW
Cosmos 1937 Rocket 3.7 19:58:21 10° S 20:03:17 51° ESE 20:08:19 10° NNE
Cosmos 2297 3.7 19:59:25 10° SSW 20:05:02 65° ESE 20:10:40 10° NNE
Gbstr 26 Del rocket 4.4 19:58:04 10° WNW 20:05:44 64° SSW 20:10:53 17° SE
ISS -3.9 20:06:47 10° WSW 20:10:08 75° SSE 20:13:31 10° ENE
Meteor 1-11 Rocket 4.4 20:07:09 10° NNW 20:12:57 56° W 20:18:39 10° S
Cosmos 1340 Rocket 2.9 20:11:48 10° NNW 20:15:54 76° WSW 20:18:40 20° S
Cosmos 2082 Rocket 3.7 20:11:41 10° NW 20:16:28 29° WSW 20:21:15 10° SSW
Cosmos 2154 Rocket 4.3 20:11:26 10° NNW 20:17:42 68° W 20:23:27 12° S
Cosmos 1680 Rocket 4.2 20:12:40 10° NNW 20:17:47 49° WSW 20:22:04 14° S
Cosmos 1867 4.4 20:15:58 19° SSE 20:18:49 30° ESE 20:23:31 10° NE
H-2A R/B 3.9 20:16:33 10° NNE 20:20:35 45° E 20:22:44 24° SSE
Cosmos 962 Rocket 4.4 20:14:42 10° N 20:20:52 80° E 20:25:27 19° SSE
Okean 1 3.8 20:19:29 24° SSE 20:21:26 43° E 20:25:13 10° NNE
Cosmos 1943 Rocket 2.1 20:15:57 10° SSW 20:21:31 66° ESE 20:27:04 10° NNE
Cosmos 858 Rocket 4.5 20:16:29 10° SSW 20:21:39 69° ESE 20:26:53 10° NNE
Nadezhda 1 Rocket 4.1 20:16:07 10° SSW 20:22:24 77° W 20:28:37 10° N
Cosmos 1461 3.1 20:19:10 10° SSW 20:23:49 65° SE 20:28:24 10° NE
Cosmos 1515 3.8 20:21:57 25° SSE 20:23:53 54° E 20:27:36 10° NNE
Cosmos 1544 3.9 20:29:32 10° NNW 20:33:00 44° W 20:35:19 19° SSW
BREEZE-M R/B 1.7 20:30:51 10° W 20:33:15 64° SSW 20:33:57 42° SE
ATLAS CENTAUR R/B 2.4 20:35:24 23° ESE 20:35:24 23° ESE 20:38:03 10° ENE
CZ-4B DEB 4.3 20:35:14 33° S 20:36:32 76° WSW 20:39:46 10° NNW
Cosmos 1862 Rocket 3.6 20:37:29 27° SSE 20:39:40 59° E 20:43:56 10° NNE
SL-27 R/B 3.8 20:37:50 10° N 20:40:47 28° ENE 20:42:01 22° E
Cosmos 1536 4.4 20:37:45 10° NNW 20:41:18 30° W 20:44:24 12° SSW
Cosmos 372 Rocket 4.0 20:38:32 20° S 20:41:57 61° ESE 20:47:00 10° NNE
Cosmos 1607 4.3 20:38:46 17° S 20:43:22 45° ESE 20:49:30 10° NE
Cosmos 2278 Rocket 4.5 20:39:03 10° W 20:43:46 26° NW 20:48:31 10° NNE
USA 215 4.2 20:38:12 10° ENE 20:44:27 49° N 20:50:41 10° WNW
ATLAS 2AS CENTAUR R/B 3.8 20:40:08 10° NW 20:46:33 34° WSW 20:51:07 16° S
Cosmos 2369 Rocket 2.3 20:42:46 19° S 20:46:40 57° ESE 20:52:13 10° NE
Resurs 01 Rocket 4.4 20:49:10 10° WSW 20:50:31 11° W 20:51:53 10° WNW
Cosmos 1898 Rocket 4.3 20:47:04 10° SW 20:52:16 53° WNW 20:57:31 10° NNE
Cosmos 44 Rocket 3.9 20:49:22 10° NW 20:54:34 56° NE 20:57:52 21° ESE
Cosmos 2366 rocket 4.0 20:49:54 10° N 20:56:08 83° E 20:59:52 26° SSE
Cosmos 494 Rocket 4.4 20:52:49 10° NNW 20:57:55 54° ENE 21:00:38 26° SE
Terra 2.4 20:55:27 22° SSW 20:58:16 51° W 21:02:56 10° NNW
Cosmos 1975 2.7 20:56:06 10° N 21:00:07 85° E 21:01:34 38° SSE
Meteor 2-9 Rocket 4.3 20:56:00 10° NNW 21:01:45 75° W 21:04:57 27° S
Cosmos 1707 Rocket 4.4 20:58:17 14° SSW 21:01:52 47° WNW 21:06:10 10° N
Cosmos 2181 Rocket 3.9 20:58:38 22° S 21:02:45 85° E 21:08:54 10° N
Meteor 1-18 Rocket 4.1 21:00:09 24° S 21:03:38 81° E 21:09:13 10° NNE
NOSS 2-1 (C) 4.5 21:03:51 10° NW 21:08:20 58° NE 21:12:41 19° ESE
RESURS DK-1 2.4 21:10:23 10° NW 21:14:32 68° WSW 21:15:50 41° S
NOSS 2-1 (D) 4.3 21:10:42 10° NW 21:15:14 63° NE 21:19:20 21° ESE
Cosmos 1356 Rocket 4.1 21:18:04 10° N 21:22:14 45° ENE 21:23:38 33° ESE
Okean 3 4.4 21:22:42 29° ESE 21:23:29 32° E 21:27:14 10° NNE
Cosmos 2150 Rocket 4.1 21:22:25 33° S 21:24:42 62° ESE 21:29:55 10° NNE
Cosmos 1378 4.0 21:25:54 34° ESE 21:26:13 34° E 21:29:38 10° NNE
Cosmos 1733 Rocket 4.5 21:22:50 10° NNW 21:26:37 30° W 21:28:47 19° SW
Cosmos 2263 4.2 21:23:09 23° SSW 21:26:53 82° ESE 21:32:43 10° NNE
Cosmos 2218 Rocket 4.4 21:20:59 10° NNW 21:27:12 60° W 21:30:56 25° SSW
Cosmos 2098 4.1 21:25:15 10° N 21:28:16 89° WSW 21:28:32 72° S
Cosmos 1125 Rocket 3.7 21:27:37 36° SSE 21:29:28 54° ESE 21:34:34 10° NNE
COSMOS 2487 3.8 21:28:25 10° N 21:31:27 29° ENE 21:32:17 26° E
ALOS 2 3.2 21:31:08 33° ESE 21:32:42 48° ENE 21:36:56 10° N
Cosmos 2227 Rocket 4.3 21:30:03 10° NNW 21:34:23 22° NE 21:38:42 10° E
Cosmos 2297 Rocket 4.0 21:31:53 10° NNW 21:36:38 26° NE 21:41:22 10° E
COSMOS 2455 3.9 21:31:17 10° NNW 21:36:59 42° NE 21:42:05 13° ESE
Spot 4 3.8 21:38:11 39° SSE 21:40:00 87° WSW 21:44:54 10° NNW
Cosmos 1300 Rocket 4.4 21:36:03 10° N 21:40:12 39° ENE 21:41:34 31° ESE
Meteor 2-4 Rocket 3.8 21:39:43 28° SSW 21:42:47 77° WNW 21:48:21 10° N
Nadezhda 3 Rocket 4.0 21:40:50 33° SSE 21:43:42 67° E 21:49:50 10° NNE
ISS -3.4 21:43:41 10° W 21:47:02 65° N 21:50:00 13° E
Cosmos 1908 Rocket 4.2 21:43:24 10° NNW 21:47:43 47° W 21:49:13 33° SW
Cosmos 1766 4.4 21:47:11 10° N 21:50:48 33° ENE 21:51:45 29° ESE
Sich 1 Rocket 3.7 21:55:25 10° N 21:59:58 69° ENE 22:01:13 45° SE
BREEZE-M DEB (TANK) 2.2 21:56:46 10° WNW 22:00:29 71° NNW 22:00:29 71° NNW
Cosmos 1867 4.1 21:56:43 10° SW 22:02:07 60° NW 22:07:34 10° NE
Lacrosse 5 2.0 22:02:09 43° S 22:03:11 51° SE 22:08:08 10° ENE
Cosmos 1943 Rocket 4.0 22:00:54 10° WSW 22:05:44 29° NW 22:10:33 10° NNE
Cosmos 2242 Rocket 4.3 22:05:59 30° SW 22:07:47 48° WNW 22:12:11 10° N
SeaSat 1 4.3 22:05:36 10° ENE 22:08:30 15° ESE 22:09:01 15° ESE
Okean 2 Rocket 3.3 22:05:36 10° N 22:09:58 61° ENE 22:11:08 44° SE
Okean 1-7 3.7 22:08:56 32° SW 22:10:28 48° WNW 22:14:40 10° N
Cosmos 2151 Rocket 4.1 22:07:48 10° N 22:12:13 51° ENE 22:13:33 38° SE
Cosmos 1656 Rocket 4.2 22:08:33 18° SW 22:12:34 56° NW 22:18:04 10° NNE
NOSS 2-1 (E) 4.2 22:07:49 10° NW 22:12:41 68° SW 22:15:25 35° SSE
ATLAS CENTAUR R/B 2.1 22:11:29 21° WSW 22:13:38 45° NW 22:17:22 10° NNE
Meteor 1-23 Rocket 4.4 22:12:35 37° SSE 22:14:47 62° E 22:20:32 10° NNE
SL-27 R/B 4.1 22:13:03 10° NW 22:15:31 22° W 22:15:31 22° W
Meteor 1-13 Rocket 4.2 22:16:23 35° SSW 22:18:46 76° WNW 22:24:19 10° N
Cosmos 1782 Rocket 4.4 22:16:12 10° NNW 22:20:21 39° W 22:21:28 33° SW
Cosmos 1842 4.3 22:22:36 30° ESE 22:23:00 31° E 22:26:28 10° NNE
USA 81 4.4 22:19:19 10° N 22:24:32 57° E 22:26:35 35° SE
USA 215 3.6 22:20:32 10° ESE 22:27:01 66° NNE 22:33:29 10° WNW
Cosmos 1269 Rocket 4.0 22:21:56 10° NNW 22:27:13 72° WSW 22:28:56 43° S
Cosmos 1733 3.0 22:23:41 10° N 22:27:31 85° W 22:27:56 69° S
Cosmos 2219 4.1 22:22:11 10° NNW 22:27:40 45° NE 22:31:59 16° ESE
Cosmos 1934 Rocket 3.9 22:23:28 10° NNW 22:29:36 79° W 22:32:08 37° S
MTI 3.8 22:27:12 10° N 22:29:57 68° NNW 22:29:57 68° NNW
Cosmos 2369 Rocket 3.8 22:26:01 10° WSW 22:31:02 32° NW 22:36:07 10° NNE
Cosmos 1378 Rocket 4.4 22:31:58 33° ESE 22:32:50 37° E 22:36:49 10° NNE
Cosmos 2251 Rocket 4.4 22:27:52 10° NNW 22:32:54 43° ENE 22:36:10 20° ESE
Cosmos 44 Rocket 4.3 22:31:20 10° NW 22:35:53 31° WSW 22:36:33 30° SW
Cosmos 1400 Rocket 3.0 22:35:10 10° N 22:39:15 65° ENE 22:40:04 51° SE
COBE Rocket 4.4 22:38:52 38° SSW 22:40:27 53° W 22:45:33 10° NNW
Thor Agena Rocket 3.6 22:36:47 10° NNE 22:42:05 76° ESE 22:43:56 42° S
Lacrosse 4 Rocket 3.9 22:42:11 11° ESE 22:42:30 11° ESE 22:43:26 10° E
Cosmos 1707 4.2 22:45:53 23° ESE 22:46:32 24° E 22:49:40 10° NE
Cosmos 1315 Rocket 4.3 22:46:58 10° N 22:50:33 31° ENE 22:52:13 22° ESE
Cosmos 1697 Rocket 4.3 22:52:02 18° SE 22:53:50 21° E 22:57:54 10° NE
Meteor 1-22 Rocket 4.4 22:48:22 10° NNW 22:54:26 81° W 22:57:03 37° S
BREEZE-M DEB (TANK) 4.3 22:54:00 33° SSE 22:54:35 34° SE 23:03:20 10° ENE
Cosmos 1726 2.5 22:53:02 10° N 22:56:41 52° ENE 22:57:18 45° ESE
Cosmos 371 Rocket 4.4 22:57:11 28° SE 22:58:26 32° ESE 23:02:45 10° NE
Okean 1 Rocket 3.0 22:56:18 10° N 23:00:43 76° E 23:01:53 47° SSE
Cosmos 2221 Rocket 4.0 23:01:50 39° SW 23:03:12 55° WNW 23:07:42 10° N
Cosmos 1674 Rocket 3.5 23:03:14 51° S 23:04:21 89° E 23:08:52 10° N
COSMOS 2487 4.2 23:03:31 10° NW 23:05:34 21° W 23:05:34 21° W
Cosmos 1980 Rocket 4.3 23:05:54 11° SE 23:08:26 15° E 23:11:25 10° ENE
ALOS 2 4.2 23:08:32 21° WSW 23:09:17 22° W 23:12:42 10° NW
Cosmos 1727 Rocket 4.1 23:10:28 34° S 23:13:25 75° E 23:19:48 10° NNE
Helios 1A 3.4 23:15:54 34° SE 23:17:28 58° ENE 23:21:33 10° N
SL-24 R/B 4.1 23:16:38 42° SSE 23:18:04 79° ENE 23:22:18 10° NNW
Cosmos 2227 Rocket 2.2 23:13:36 10° NNW 23:19:17 85° ENE 23:22:33 27° SSE
Cosmos 1674 4.4 23:18:31 21° ESE 23:19:39 24° E 23:22:44 10° NE
Cosmos 2297 Rocket 2.1 23:15:36 10° NNW 23:21:17 75° WSW 23:23:53 33° SSE
CZ-4 R/B 4.5 23:16:46 10° NNE 23:21:24 45° E 23:23:05 32° SSE
Cosmos 1656 3.8 23:20:17 37° S 23:22:17 60° ESE 23:27:46 10° NE
COSMOS 2455 3.1 23:17:17 10° NW 23:23:05 50° WSW 23:25:11 35° SSW
Okean 2 3.3 23:22:15 52° SSW 23:23:13 84° W 23:27:24 10° N
ISS -3.0 23:20:34 10° WNW 23:22:53 40° W 23:22:53 40° W
APEX 4.2 23:22:38 10° NNW 23:27:04 65° ENE 23:31:28 16° SE
Timation 1 Rocket 4.4 23:24:25 10° NNW 23:30:26 80° ENE 23:35:00 18° SE
ADEOS II 4.4 23:28:41 10° NE 23:31:29 14° E 23:34:15 10° ESE
MOZ.5/SAFIR/RUBIN 5/SL-8 4.2 23:29:29 26° SE 23:31:57 59° ENE 23:36:32 10° N
Cosmos 1459 Rocket 4.0 23:26:55 10° N 23:33:12 79° E 23:36:45 27° SSE
Meteor 2-10 4.4 23:28:50 10° NNW 23:33:57 50° W 23:35:40 36° SW
Cosmos 1455 Rocket 3.5 23:30:30 10° N 23:34:48 56° ENE 23:36:47 29° SE
Cosmos 2082 4.0 23:31:54 10° NNW 23:37:37 67° ENE 23:42:46 13° SE
USA 276 1.9 23:39:54 86° WSW 23:39:58 88° S 23:43:09 10° E
SL-16 R/B 3.2 23:34:51 12° SE 23:40:35 54° ENE 23:46:40 10° N
TSX-5 3.6 23:38:20 10° NW 23:41:46 63° WSW 23:42:25 53° SSW
Cosmos 1953 2.7 23:39:42 10° N 23:43:39 58° ENE 23:45:19 32° SE
Cosmos 614 Rocket 3.9 23:40:22 10° NNW 23:45:28 69° WSW 23:47:41 34° S
Lacrosse 5 2.5 23:41:17 10° W 23:46:13 55° NNW 23:51:14 10° ENE
Cosmos 1470 3.5 23:42:34 10° NNW 23:46:14 38° W 23:46:48 36° WSW
SeaSat 1 2.4 23:41:41 10° NNE 23:46:40 88° ESE 23:48:47 35° SSW
Cosmos 2016 Rocket 4.1 23:42:35 10° N 23:48:51 72° ENE 23:53:05 21° SSE
Cosmos 304 Rocket 4.2 23:51:19 32° SSE 23:53:14 52° ESE 23:57:55 10° NNE
ATLAS CENTAUR R/B 4.1 23:51:25 10° NW 23:53:28 14° NNW 23:55:35 10° NNE
Resurs 1-4 Rocket 2.9 23:48:32 10° NNE 23:53:32 42° E 23:56:32 22° SSE
